Pasco, WA
on Monday, February 11, 2013

Monday
Previous Day Next Day
Daily Summary
 ActualAverageRecord
Temperature
Mean Temperature °F 38°F  
Max Temperature 48°F 48°F 58°F (1998)
Min Temperature 21°F 29°F 18°F (2006)
Degree Days
Heating Degree Days 30 27  
Month to date heating degree days 292 303  
Since 1 July heating degree days 3203 3454  
Cooling Degree Days 0 0  
Month to date cooling degree days 0 0  
Year to date cooling degree days 0 0  
Moisture
Dew Point 27°F   
Average Humidity 75    
Maximum Humidity 96    
Minimum Humidity 53    
Precipitation
Precipitation 0.00 in in 0.22 in (2000)
Month to date precipitation T  
Year to date precipitation 0.36  
Snow
Snow 0.00 in in in ()
Snow Depth 0.00 in   
Wind
Wind Speed 2 mph   
Max Wind Speed 9 mph   
Max Gust Speed 10 mph   
Visibility 10 miles   
Events     

Key: T is trace of precipitation, MM is missing value
Source: NWS Daily Summary
Time(PST)TemperatureDew PointHumidity Pressure Visibility Wind DirectionWind SpeedGust SpeedPrecipitationEvents Conditions
12:53 AM 26.1°F 24.1°F 92% 30.24 in 10.0 miles Calm Calm - N/A   Clear
1:53 AM 25.0°F 23.0°F 92% 30.24 in 10.0 miles NNW 3.5 mph - N/A   Clear
2:53 AM 24.1°F 21.9°F 91% 30.24 in 10.0 miles NNW 3.5 mph - N/A   Clear
3:53 AM 26.1°F 23.0°F 88% 30.24 in 10.0 miles NW 3.5 mph - N/A   Clear
4:53 AM 23.0°F 21.0°F 92% 30.25 in 10.0 miles Calm Calm - N/A   Clear
5:53 AM 21.9°F 19.9°F 92% 30.23 in 10.0 miles Calm Calm - N/A   Clear
6:53 AM 23.0°F 21.0°F 92% 30.24 in 10.0 miles Calm Calm - N/A   Clear
7:53 AM 25.0°F 23.0°F 92% 30.24 in 10.0 miles Calm Calm - N/A   Clear
8:53 AM 30.9°F 28.9°F 92% 30.25 in 10.0 miles NNW 4.6 mph - N/A   Clear
9:53 AM 39.0°F 32.0°F 76% 30.25 in 10.0 miles NW 3.5 mph - N/A   Clear
10:53 AM 42.1°F 32.0°F 67% 30.27 in 10.0 miles Variable 3.5 mph - N/A   Clear
11:53 AM 44.1°F 33.1°F 65% 30.25 in 10.0 miles NNW 5.8 mph - N/A   Clear
12:53 PM 46.0°F 33.1°F 61% 30.25 in 10.0 miles Variable 4.6 mph - N/A   Clear
1:53 PM 46.9°F 32.0°F 56% 30.24 in 10.0 miles NW 4.6 mph - N/A   Clear
2:53 PM 46.9°F 32.0°F 56% 30.23 in 10.0 miles WNW 4.6 mph - N/A   Clear
3:53 PM 46.9°F 30.9°F 54% 30.24 in 10.0 miles NNW 4.6 mph - N/A   Clear
4:53 PM 42.1°F 32.0°F 67% 30.24 in 10.0 miles NE 6.9 mph - N/A   Clear
5:53 PM 37.0°F 30.9°F 79% 30.25 in 10.0 miles North 3.5 mph - N/A   Clear
6:53 PM 32.0°F 28.9°F 88% 30.27 in 10.0 miles NW 4.6 mph - N/A   Clear
7:53 PM 30.9°F 28.0°F 89% 30.28 in 10.0 miles NW 3.5 mph - N/A   Clear
8:53 PM 28.9°F 26.1°F 89% 30.27 in 10.0 miles NNW 4.6 mph - N/A   Clear
9:53 PM 28.9°F 27.0°F 92% 30.27 in 9.0 miles Calm Calm - N/A   Clear
10:53 PM 28.0°F 27.0°F 96% 30.28 in 9.0 miles Calm Calm - N/A   Mostly Cloudy
11:53 PM 28.0°F 27.0°F 96% 30.29 in 9.0 miles Calm Calm - N/A   Mostly Cloudy
Moon Phase
Feb. 11 Feb. 17 Feb. 25 Mar. 04 Mar. 11
Sunrise:07:05 AM (PST) Moon Rise:07:23 AM (PST)2/11
Sunset:05:16 PM (PST) Moon Set:07:29 PM (PST)2/11

Copyright © 2014 The Weather Underground, Inc.